Worcester, MA

4:02 AM EDT on October 21, 2017 (GMT -0400)
Worcester Regional

Weather History for KORH - January, 2013

Change the Weather History Date:

Tuesday, January 8, 2013

  Actual Average Record
Temperature  
Mean Temperature 32 °F 24 °F  
Max Temperature 42 °F 31 °F 62 °F (2008)
Min Temperature 22 °F 17 °F -11 °F (1968)
Degree Days  
Heating Degree Days 33 41  
Month to date heating degree days 318 324  
Since 1 July heating degree days 2533 2828  
Cooling Degree Days 0 0  
Month to date cooling degree days 0 0  
Year to date cooling degree days 0 0  
Moisture  
Dew Point 23 °F    
Average Humidity 62    
Maximum Humidity 75    
Minimum Humidity 49    
Precipitation  
Precipitation 0.00 in 0.10 in 1.36 in (1979)
Month to date precipitation 0.01 0.88  
Year to date precipitation 0.01 0.88  
Snow  
Snow 0.00 in 0.60 in 13.00 in (1996)
Month to date snowfall 0.2 4.3  
Since 1 July snowfall 26.5 21.5  
Snow Depth 0.00 in    
Sea Level Pressure  
Sea Level Pressure 30.32 in    
Wind  
Wind Speed 15 mph (WSW)    
Max Wind Speed 26 mph    
Max Gust Speed 35 mph    
Visibility 10 miles    
Events      
T = Trace of Precipitation, MM = Missing Value Source: NWS Daily Summary

Daily Weather History Graph

Daily Weather History Graph

Search for Another Location

Airport or City:

Trip Planner

Search our weather history database for the weather conditions in past years. The results will help you decide how hot, cold, wet, or windy it might be!

Date:

Astronomy

Jan. 08, 2013 Rise Set
Actual Time 7:16 AM EST 4:32 PM EST
Civil Twilight 6:44 AM EST 5:04 PM EST
Nautical Twilight 6:09 AM EST 5:39 PM EST
Astronomical Twilight 5:35 AM EST 6:13 PM EST
Moon 3:45 AM EST (1/8) 1:32 PM EST (1/8)
Length of Visible Light 10h 19m
Length of Day
9h 16m
Waning Crescent, 14% of the Moon is Illuminated
Jan 8
Waning Crescent
Jan 11
New
Jan 18
First Quarter
Jan 26
Full
Feb 3
Last Quarter

Hourly Weather History & Observations

Time (EST) Temp. Windchill Dew Point Humidity Pressure Visibility Wind Dir Wind Speed Gust Speed Precip Events Conditions
12:54 AM 23.0 °F 13.1 °F 14.0 °F 68% 30.34 in 10.0 mi SW 9.2 mph - N/A   Clear
1:54 AM 26.1 °F 14.5 °F 15.1 °F 63% 30.33 in 10.0 mi SW 13.8 mph - N/A   Clear
2:54 AM 26.1 °F 13.6 °F 16.0 °F 66% 30.33 in 10.0 mi SW 16.1 mph - N/A   Clear
3:54 AM 28.0 °F 15.7 °F 19.9 °F 72% 30.31 in 10.0 mi SW 17.3 mph - N/A   Clear
4:54 AM 28.0 °F 16.5 °F 21.0 °F 75% 30.30 in 10.0 mi SW 15.0 mph - N/A   Clear
5:54 AM 28.9 °F 17.7 °F 21.9 °F 75% 30.29 in 10.0 mi SW 15.0 mph 25.3 mph N/A   Clear
6:54 AM 30.9 °F 17.8 °F 21.9 °F 69% 30.30 in 10.0 mi SW 23.0 mph - N/A   Clear
7:54 AM 32.0 °F 19.2 °F 21.9 °F 66% 30.32 in 10.0 mi SW 23.0 mph 28.8 mph N/A   Clear
8:54 AM 34.0 °F 22.4 °F 23.0 °F 64% 30.33 in 10.0 mi WSW 20.7 mph 33.4 mph N/A   Clear
9:54 AM 36.0 °F 24.7 °F 24.1 °F 62% 30.34 in 10.0 mi SW 21.9 mph 34.5 mph N/A   Clear
10:54 AM 37.0 °F 26.2 °F 24.1 °F 59% 30.32 in 10.0 mi WSW 21.9 mph 29.9 mph N/A   Clear
11:54 AM 37.9 °F 27.3 °F 24.1 °F 57% 30.30 in 10.0 mi WSW 21.9 mph 27.6 mph N/A   Clear
12:54 PM 39.9 °F 30.5 °F 25.0 °F 55% 30.28 in 10.0 mi SW 19.6 mph 24.2 mph N/A   Clear
1:54 PM 41.0 °F 33.5 °F 24.1 °F 51% 30.28 in 10.0 mi WSW 13.8 mph - N/A   Clear
2:54 PM 42.1 °F 36.1 °F 24.1 °F 49% 30.30 in 10.0 mi WSW 10.4 mph - N/A   Clear
3:54 PM 39.9 °F 32.9 °F 25.0 °F 55% 30.30 in 10.0 mi WSW 11.5 mph - N/A   Clear
4:54 PM 37.9 °F 32.1 °F 25.0 °F 60% 30.31 in 10.0 mi WSW 8.1 mph - N/A   Clear
5:54 PM 36.0 °F 29.0 °F 25.0 °F 64% 30.32 in 10.0 mi WSW 9.2 mph - N/A   Clear
6:54 PM 34.0 °F 26.6 °F 25.0 °F 70% 30.33 in 10.0 mi SW 9.2 mph - N/A   Clear
7:54 PM 35.1 °F 29.3 °F 24.1 °F 64% 30.36 in 10.0 mi WSW 6.9 mph - N/A   Clear
8:54 PM 35.1 °F 27.9 °F 24.1 °F 64% 30.36 in 10.0 mi West 9.2 mph - N/A   Clear
9:54 PM 34.0 °F 26.6 °F 24.1 °F 67% 30.36 in 10.0 mi WSW 9.2 mph - N/A   Clear
10:54 PM 34.0 °F 25.5 °F 24.1 °F 67% 30.35 in 10.0 mi West 11.5 mph - N/A   Clear
11:54 PM 35.6 °F 28.0 °F 24.8 °F 65% 30.32 in 10.0 mi West 10.4 mph - N/A   Clear